DELTA 1 DEB, 5975

Orbit data source: Space-Track

DELTA 1 DEB, 5975 is space debris in HEO originally from a launch on Fri, 20 Mar 1970 UTC launched from the Air Force Eastern Test Range (AFETR). Debris objects in space refer to the collection of defunct objects orbiting the Earth. Examples of debris include non-operational satellites, rocket bodies, and fragments generated from explosions, collisions, or faulty payload assembly.

Loading next visibility...
Identifier
5975, 1970-021C
Orbit
HEO
Last TLE update
19 hours ago
Origin
Manufacturer
Unknown
Mission
Spacecraft
Bus & Motor
Unknown
Mass
Unknown
Launch date (UTC)
1970-03-20 (55 years ago)
Launch vehicle
Unknown
Launch site
Air Force Eastern Test Range (AFETR)
Object type
Payload
Rocket body
Debris
Shape & HBR
Unknown
Radar Cross Section
Large (>1 m²)

Expand to show TLE details & history

TLE from 19 hours ago
0 DELTA 1 DEB
1  5975U 70021C   25128.48749697  .00008423  00000-0  25127-2 0  9994
2  5975  25.5174 106.1855 6545564 338.0310   3.4421  3.24168378359655
Epoch: 2025-05-08T11:41Z
Definitive object data (Epoch: 2025-05-08T11:41:59.738Z)
Latitude
-0.00048°
Longitude
64.13812°
Altitude
479.935 km
Speed
9.776 km/s
True Right ascension
07h 04m 46s
True Declination
0° 00' 02"
Sunlit
Object was in daylight at TLE epoch
Visualization TLE readout
Latitude
5.49922°
Longitude
-127.95605°
Altitude
24,894.781 km
Speed
2.196 km/s
Apparent Right ascension
18h 47m 10s
Apparent Declination
-2° 10' 60"
Sunlit
Object is in daylight
Visualization observer readout
Local Sidereal Time
14:53:58
Azimuth
113.299° SE
Elevation
22.227°
Doppler factor
1
Orbital elements
Apogee altitude
25,536.444 km
Perigee altitude
285.092 km
Semi-major axis
19,288.905 km
Eccentricity
0.6545564
Inclination
25.5174°
RAAN
106.1855°
Arg. of periapsis
338.031°
True anomaly
21.40598°
Mean anomaly
3.4421°
Eccentric anomaly
9.87188°
Mean motion
0.81018 °/min
BSTAR
0.0025127
Orbital period
444.35 mins
Loading maneuver chart data...
Loading SW <> Apogee altitude chart data...
Loading historical data...
Loading historical data...
Loading historical data...
Loading historical data...
Loading historical data...
Loading historical data...
Loading historical data...
Other satellites on launch #21 in the year 1970 (1970-03-20 UTC)

DELTA 1 DEB Visibility forecast

Observer location: undefined°, undefined°

Span
Click to sort rows by Start time (UTC) header in descending order
Start Az.
Max El. time (UTC)
Max El. Az.
Max El.
End time (UTC)
End Az.
86 mins2025-05-09 06:45:05.308Z113.32° SE2025-05-09 06:45:05.308Z113.32° SE20.711°2025-05-09 08:11:05.308Z121.047° SE
231 mins2025-05-09 10:53:05.308Z277.227° WNW2025-05-09 12:06:05.308Z262.158° W21.847°2025-05-09 14:44:05.308Z252.247° W
62 mins2025-05-10 00:51:05.308Z174.487° S2025-05-10 00:59:05.308Z125.259° SE24.97°2025-05-10 01:53:05.308Z82.387° E
|